Weather in Fougamou

Gabon     1°12′57″S   10°35′00″E
temp.,
°C
wind,
m/s
gust,
m/s
humid.,
%
clouds,
%
prec.,
mm/h
press.,
hPa
HPBL,
m
22 april, thu
thu2201:00+23ssw1197100 0.7 101017
04:00+23se1199100 0.0 100933
07:00+23e019785 0.0 101159
10:00+28nne117568 0.5 1012481
13:00+32nnw116093 1.4 10091324
16:00+25nnw3689100 7.4 1007116
19:00+22s2698100 23.2 1011331
22:00+21sse2599100 18.3 1013273
23 april, fri
fri2301:00+21e1399100 21.5 1011161
04:00+21ese1399100 0.6 1010128
07:00+21se1398100 0.8 101299
10:00+23ne1291100 0.4 1013186
13:00+33se015010 0.4 10101392
16:00+30w236488 0.4 1008745
19:00+24sw1192100 6.6 101014
22:00+22w1196100 0.2 101124
24 april, sat
sat2401:00+22s1198100 0.2 101014
04:00+22ese1198100 0.0 100917
07:00+22ene0097100 0.0 101148
10:00+28ene127090 0.0 1012678
13:00+30ene225869 0.0 10101486
16:00+24nne2593100 5.1 1010174
19:00+23s2597100 5.6 1009177
22:00+22n119827 0.0 101115
25 april, sun
sun2501:00+21n119817 0.0 101032
04:00+21nne119963 0.0 101016
07:00+22nne119774 0.0 101253
10:00+29nne116419 0.0 1013807
13:00+31nw115698 0.1 10101473
16:00+29w126756 0.3 1008552
19:00+25sw118692 0.7 101017
22:00+23sw139669 0.6 101169
26 april, mon
mon2601:00+22ssw1298100 0.6 101058
04:00+22sse119979 0.0 101017
07:00+23sse019789 0.0 101267
10:00+29nne106995 0.0 1013891
13:00+29wnw1172100 1.5 1010903
16:00+29w1171100 4.8 1007361
19:00+24sw2394100 8.2 100954
22:00+24sw1295100 1.3 101136